CKK756 WSSS-RCTP

Flight info

Callsign CKK756
Flight time N/A
Altitude 35000
Route VMR9B VMR M771 DUDIS/K0898F330 M771 DOSUT/N0478F330 M771 DULOP DCT ENVAR M750 TONGA TONGA1A
Aircraft B77L/H-SDE1E2E3FGHIJ2J3J4J5M1RWXY/LB1D1

Departure

Time 2026-05-06 03:10
Airport Singapore Changi Airport (WSSS)

Arrival

Time N/A
Airport Taiwan Taoyuan International Airport (RCTP)
Time Latitude Longitude Altitude Speed Heading
2026-05-06 02:54 1.37474 103.99301 37 ft 0 kts 112°
2026-05-06 02:59 1.37482 103.99282 36 ft 4 kts 112°
2026-05-06 02:59 1.37493 103.99257 37 ft 4 kts 113°
2026-05-06 03:00 1.37502 103.99235 37 ft 3 kts 114°
2026-05-06 03:00 1.37514 103.99216 37 ft 4 kts 145°
2026-05-06 03:00 1.37531 103.99209 37 ft 4 kts 194°
2026-05-06 03:00 1.37555 103.99218 35 ft 2 kts 200°
2026-05-06 03:01 1.37557 103.99219 33 ft 0 kts 199°
2026-05-06 03:03 1.37547 103.99215 36 ft 4 kts 199°
2026-05-06 03:03 1.37501 103.99199 37 ft 10 kts 199°
2026-05-06 03:03 1.37421 103.99168 35 ft 15 kts 202°
2026-05-06 03:03 1.37322 103.99126 37 ft 15 kts 203°
2026-05-06 03:04 1.37225 103.99085 37 ft 15 kts 203°
2026-05-06 03:04 1.37127 103.99044 37 ft 15 kts 203°
2026-05-06 03:04 1.37034 103.99049 37 ft 15 kts 130°
2026-05-06 03:04 1.36993 103.99143 37 ft 15 kts 113°
2026-05-06 03:05 1.36952 103.99238 37 ft 15 kts 112°
2026-05-06 03:05 1.36912 103.99333 37 ft 15 kts 112°
2026-05-06 03:05 1.36873 103.99427 37 ft 15 kts 112°
2026-05-06 03:05 1.36832 103.99521 37 ft 15 kts 113°
2026-05-06 03:06 1.36792 103.99616 37 ft 15 kts 113°
2026-05-06 03:06 1.36751 103.99711 37 ft 15 kts 112°
2026-05-06 03:06 1.36699 103.99788 37 ft 14 kts 159°
2026-05-06 03:06 1.36606 103.99769 37 ft 14 kts 203°
2026-05-06 03:07 1.36519 103.99732 37 ft 12 kts 203°
2026-05-06 03:07 1.36437 103.99728 37 ft 12 kts 153°
2026-05-06 03:07 1.36394 103.99802 36 ft 12 kts 112°
2026-05-06 03:07 1.36339 103.99864 36 ft 12 kts 158°
2026-05-06 03:08 1.36252 103.99878 35 ft 13 kts 173°
2026-05-06 03:08 1.36162 103.99883 35 ft 13 kts 191°
2026-05-06 03:08 1.36135 103.99874 34 ft 0 kts 202°
2026-05-06 03:08 1.36124 103.99869 35 ft 10 kts 202°
2026-05-06 03:09 1.35894 103.99773 36 ft 70 kts 202°
2026-05-06 03:09 1.35232 103.99493 38 ft 134 kts 203°
2026-05-06 03:09 1.34209 103.99063 39 ft 183 kts 204°
2026-05-06 03:09 1.33012 103.98545 462 ft 186 kts 204°
2026-05-06 03:10 1.31817 103.98024 960 ft 187 kts 203°
2026-05-06 03:10 1.30635 103.97528 1646 ft 182 kts 202°
2026-05-06 03:10 1.29441 103.97029 2013 ft 198 kts 202°
2026-05-06 03:10 1.28092 103.96464 2238 ft 221 kts 202°
2026-05-06 03:11 1.26576 103.95828 2408 ft 249 kts 202°
2026-05-06 03:11 1.24946 103.95151 2978 ft 257 kts 199°
2026-05-06 03:11 1.23155 103.94940 3508 ft 265 kts 169°
2026-05-06 03:11 1.21510 103.95696 4244 ft 267 kts 142°
2026-05-06 03:12 1.20094 103.96919 4884 ft 272 kts 139°
2026-05-06 03:12 1.18660 103.98182 5620 ft 275 kts 139°
2026-05-06 03:12 1.17231 103.99464 6381 ft 275 kts 134°
2026-05-06 03:12 1.16245 104.01115 6927 ft 282 kts 105°
2026-05-06 03:13 1.16181 104.03075 7598 ft 286 kts 77°
2026-05-06 03:13 1.16985 104.04858 8287 ft 287 kts 54°
2026-05-06 03:13 1.18219 104.06443 8865 ft 292 kts 52°
2026-05-06 03:13 1.19496 104.08037 9550 ft 294 kts 50°
2026-05-06 03:14 1.21035 104.09368 10075 ft 297 kts 31°
2026-05-06 03:14 1.22894 104.10376 10364 ft 314 kts 29°
2026-05-06 03:14 1.24888 104.11458 10527 ft 336 kts 28°
2026-05-06 03:14 1.27135 104.12205 10636 ft 357 kts
2026-05-06 03:15 1.29665 104.11925 10931 ft 376 kts 340°
2026-05-06 03:15 1.31917 104.10561 11445 ft 382 kts 320°
2026-05-06 03:15 1.33942 104.08782 11994 ft 391 kts 319°
2026-05-06 03:15 1.35991 104.06967 12783 ft 395 kts 319°
2026-05-06 03:16 1.38083 104.05158 13570 ft 399 kts 320°
2026-05-06 03:16 1.40206 104.03353 14241 ft 403 kts 321°
2026-05-06 03:16 1.42522 104.01780 14737 ft 407 kts 338°
2026-05-06 03:16 1.45193 104.00875 15263 ft 409 kts 345°
2026-05-06 03:17 1.47904 104.00067 15918 ft 413 kts 345°
2026-05-06 03:17 1.50659 103.99228 16672 ft 415 kts 344°
2026-05-06 03:17 1.53432 103.98363 17348 ft 418 kts 344°
2026-05-06 03:17 1.56219 103.97475 17935 ft 423 kts 343°
2026-05-06 03:18 1.59038 103.96567 18478 ft 427 kts 343°
2026-05-06 03:18 1.61882 103.95646 19000 ft 431 kts 343°
2026-05-06 03:18 1.64748 103.94716 19547 ft 434 kts 343°
2026-05-06 03:18 1.67633 103.93780 20083 ft 436 kts 343°
2026-05-06 03:19 1.70495 103.92853 20618 ft 439 kts 343°
2026-05-06 03:19 1.73423 103.91904 21118 ft 443 kts 343°
2026-05-06 03:19 1.76393 103.91037 21618 ft 443 kts 351°
2026-05-06 03:19 1.79466 103.90679 22050 ft 445 kts 358°
2026-05-06 03:20 1.85696 103.90416 23054 ft 450 kts 359°
2026-05-06 03:20 1.88833 103.90291 23517 ft 453 kts 359°
2026-05-06 03:20 1.91999 103.90138 23905 ft 456 kts 358°
2026-05-06 03:21 1.95144 103.89963 24282 ft 459 kts 358°
2026-05-06 03:21 1.98349 103.89768 24662 ft 462 kts 358°
2026-05-06 03:21 2.01568 103.89564 25057 ft 464 kts 358°
2026-05-06 03:21 2.04810 103.89356 25432 ft 467 kts 358°
2026-05-06 03:22 2.08063 103.89147 25816 ft 469 kts 358°
2026-05-06 03:22 2.11327 103.88939 26214 ft 471 kts 358°
2026-05-06 03:22 2.14617 103.88730 26585 ft 474 kts 358°
2026-05-06 03:22 2.16796 103.88592 26823 ft 475 kts 358°
2026-05-06 03:23 2.21190 103.88314 27290 ft 479 kts 358°
2026-05-06 03:23 2.23407 103.88174 27536 ft 481 kts 358°
2026-05-06 03:23 2.26762 103.87962 27879 ft 483 kts 358°
2026-05-06 03:23 2.31274 103.87677 28364 ft 486 kts 358°
2026-05-06 03:24 2.33514 103.87535 28618 ft 488 kts 358°
2026-05-06 03:24 2.36896 103.87430 28893 ft 487 kts
2026-05-06 03:24 2.41238 103.88536 29142 ft 490 kts 27°
2026-05-06 03:24 2.43210 103.89703 29337 ft 486 kts 34°
2026-05-06 03:25 2.46045 103.91577 29601 ft 490 kts 34°
2026-05-06 03:25 2.48876 103.93413 29933 ft 492 kts 33°
2026-05-06 03:25 2.51766 103.95252 30221 ft 493 kts 33°
2026-05-06 03:25 2.54679 103.97081 30484 ft 495 kts 33°
2026-05-06 03:26 2.57616 103.98911 30763 ft 497 kts 33°
2026-05-06 03:26 2.60554 104.00735 31096 ft 496 kts 32°
2026-05-06 03:26 2.63486 104.02554 31476 ft 495 kts 32°
2026-05-06 03:26 2.66417 104.04373 31843 ft 494 kts 32°
2026-05-06 03:27 2.69334 104.06186 32206 ft 494 kts 32°
2026-05-06 03:27 2.72263 104.08007 32568 ft 494 kts 32°
2026-05-06 03:27 2.75140 104.09797 32924 ft 493 kts 32°
2026-05-06 03:27 2.78056 104.11612 33284 ft 493 kts 32°
2026-05-06 03:28 2.80966 104.13423 33649 ft 492 kts 32°
2026-05-06 03:28 2.83875 104.15234 33992 ft 492 kts 32°
2026-05-06 03:28 2.86778 104.17042 34311 ft 491 kts 32°
2026-05-06 03:28 2.89682 104.18849 34673 ft 489 kts 32°
2026-05-06 03:29 2.92566 104.20645 34929 ft 490 kts 32°
2026-05-06 03:29 2.95473 104.22455 34884 ft 492 kts 32°
2026-05-06 03:29 3.01234 104.26042 34882 ft 489 kts 32°
2026-05-06 03:30 3.06992 104.29632 34902 ft 486 kts 32°
2026-05-06 03:30 3.12702 104.33243 34897 ft 485 kts 33°
2026-05-06 03:31 3.18435 104.36825 34898 ft 485 kts 32°
2026-05-06 03:31 3.24150 104.40353 34896 ft 485 kts 32°
2026-05-06 03:32 3.29895 104.43909 34896 ft 486 kts 32°
2026-05-06 03:32 3.35647 104.47477 34896 ft 487 kts 32°
2026-05-06 03:33 3.41413 104.51056 34897 ft 488 kts 32°
2026-05-06 03:33 3.47151 104.54616 34893 ft 488 kts 32°
2026-05-06 03:34 3.52925 104.58203 34894 ft 489 kts 32°
2026-05-06 03:34 3.58716 104.61803 34896 ft 489 kts 32°
2026-05-06 03:35 3.64466 104.65379 34895 ft 489 kts 32°
2026-05-06 03:35 3.70236 104.68967 34891 ft 489 kts 32°
2026-05-06 03:36 3.76022 104.72566 34894 ft 488 kts 32°
2026-05-06 03:36 3.81795 104.76157 34892 ft 488 kts 32°
2026-05-06 03:37 3.87560 104.79745 34895 ft 487 kts 32°
2026-05-06 03:37 3.93275 104.83304 34897 ft 487 kts 32°
2026-05-06 03:38 3.99034 104.86893 34897 ft 486 kts 32°
2026-05-06 03:38 4.04783 104.90475 34893 ft 486 kts 32°
2026-05-06 03:39 4.10535 104.94060 34897 ft 486 kts 32°
2026-05-06 03:39 4.16237 104.97616 34895 ft 485 kts 32°
2026-05-06 03:40 4.21970 105.01189 34894 ft 485 kts 32°
2026-05-06 03:40 4.27714 105.04761 34893 ft 485 kts 32°
2026-05-06 03:41 4.33451 105.08327 34894 ft 485 kts 32°
2026-05-06 03:41 4.39153 105.11874 34894 ft 485 kts 32°
2026-05-06 03:42 4.44896 105.15448 34896 ft 485 kts 32°
2026-05-06 03:42 4.50645 105.19027 34895 ft 485 kts 32°
2026-05-06 03:43 4.56345 105.22576 34896 ft 485 kts 32°
2026-05-06 03:43 4.62083 105.26149 34891 ft 485 kts 32°
2026-05-06 03:44 4.67819 105.29722 34891 ft 485 kts 32°
2026-05-06 03:44 4.73570 105.33306 34891 ft 485 kts 32°
2026-05-06 03:45 4.79272 105.36859 34875 ft 485 kts 32°
2026-05-06 03:45 4.84978 105.40467 34889 ft 485 kts 33°
2026-05-06 03:46 4.90647 105.44169 34888 ft 485 kts 33°
2026-05-06 03:46 4.96275 105.47856 34888 ft 485 kts 33°
2026-05-06 03:47 5.01937 105.51551 34889 ft 486 kts 33°
2026-05-06 03:47 5.07617 105.55250 34889 ft 486 kts 33°
2026-05-06 03:48 5.13293 105.58943 34889 ft 486 kts 33°
2026-05-06 03:48 5.18929 105.62613 34888 ft 486 kts 33°
2026-05-06 03:49 5.24608 105.66311 34886 ft 485 kts 33°
2026-05-06 03:49 5.30269 105.69999 34883 ft 485 kts 33°
2026-05-06 03:50 5.35924 105.73684 34885 ft 484 kts 33°
2026-05-06 03:50 5.41548 105.77350 34889 ft 484 kts 33°
2026-05-06 03:51 5.47204 105.81037 34888 ft 483 kts 33°
2026-05-06 03:51 5.52857 105.84723 34887 ft 483 kts 33°
2026-05-06 03:52 5.58469 105.88383 34887 ft 483 kts 33°
2026-05-06 03:52 5.64104 105.92059 34888 ft 483 kts 33°
2026-05-06 03:53 5.69712 105.95718 34885 ft 483 kts 33°
2026-05-06 03:53 5.75354 105.99401 34883 ft 483 kts 33°
2026-05-06 03:54 5.80983 106.03075 34886 ft 482 kts 33°
2026-05-06 03:54 5.86623 106.06758 34886 ft 482 kts 33°
2026-05-06 03:55 5.92220 106.10414 34887 ft 483 kts 33°
2026-05-06 03:55 5.97862 106.14100 34890 ft 483 kts 33°
2026-05-06 03:56 6.03493 106.17780 34889 ft 483 kts 33°
2026-05-06 03:56 6.09096 106.21441 34884 ft 483 kts 33°
2026-05-06 03:57 6.14742 106.25133 34885 ft 483 kts 33°
2026-05-06 03:57 6.20384 106.28823 34886 ft 483 kts 33°
2026-05-06 03:58 6.25988 106.32488 34886 ft 483 kts 33°
2026-05-06 03:58 6.31634 106.36182 34883 ft 483 kts 33°
2026-05-06 03:59 6.37257 106.39863 34885 ft 483 kts 33°
2026-05-06 03:59 6.42909 106.43563 34890 ft 482 kts 33°
2026-05-06 04:00 6.48502 106.47225 34882 ft 482 kts 33°
2026-05-06 04:00 6.54128 106.50910 34887 ft 482 kts 33°
2026-05-06 04:01 6.59745 106.54590 34891 ft 482 kts 33°
2026-05-06 04:01 6.65359 106.58270 34888 ft 482 kts 33°
2026-05-06 04:02 6.70984 106.61957 34887 ft 482 kts 34°
2026-05-06 04:02 6.76574 106.65623 34892 ft 482 kts 34°
2026-05-06 04:03 6.82199 106.69313 34890 ft 483 kts 34°
2026-05-06 04:03 6.87834 106.73010 34874 ft 483 kts 34°
2026-05-06 04:04 6.93471 106.76711 34889 ft 483 kts 34°
2026-05-06 04:04 6.99074 106.80390 34889 ft 483 kts 34°
2026-05-06 04:05 7.04721 106.84100 34891 ft 484 kts 34°
2026-05-06 04:05 7.10365 106.87814 34890 ft 484 kts 34°
2026-05-06 04:06 7.15965 106.91500 34875 ft 484 kts 34°
2026-05-06 04:06 7.21613 106.95220 34874 ft 484 kts 34°
2026-05-06 04:07 7.27250 106.98933 34886 ft 484 kts 34°
2026-05-06 04:07 7.32856 107.02627 34889 ft 483 kts 34°
2026-05-06 04:08 7.38492 107.06342 34872 ft 483 kts 34°
2026-05-06 04:08 7.44117 107.10051 34867 ft 483 kts 34°
2026-05-06 04:09 7.49747 107.13763 34883 ft 483 kts 34°
2026-05-06 04:09 7.55346 107.17457 34885 ft 482 kts 34°
2026-05-06 04:10 7.60963 107.21164 34884 ft 483 kts 34°
2026-05-06 04:10 7.66599 107.24885 34887 ft 483 kts 34°
2026-05-06 04:11 7.72189 107.28576 34890 ft 483 kts 34°
2026-05-06 04:11 7.77823 107.32298 34874 ft 483 kts 34°
2026-05-06 04:12 7.83457 107.36021 34888 ft 484 kts 34°
2026-05-06 04:12 7.89066 107.39729 34891 ft 484 kts 34°
2026-05-06 04:13 7.94701 107.43455 34877 ft 485 kts 34°
2026-05-06 04:13 8.00357 107.47196 34887 ft 486 kts 34°
2026-05-06 04:14 8.05994 107.50925 34890 ft 486 kts 34°
2026-05-06 04:14 8.10732 107.54062 34873 ft 487 kts 34°
2026-05-06 04:15 8.16395 107.57810 34889 ft 487 kts 34°
2026-05-06 04:15 8.22035 107.61546 34890 ft 487 kts 34°
2026-05-06 04:16 8.27712 107.65309 34889 ft 488 kts 34°
2026-05-06 04:16 8.33389 107.69070 34872 ft 488 kts 34°
2026-05-06 04:17 8.39068 107.72835 34890 ft 488 kts 34°
2026-05-06 04:17 8.44712 107.76577 34890 ft 488 kts 34°
2026-05-06 04:18 8.50384 107.80341 34892 ft 487 kts 34°
2026-05-06 04:18 8.56054 107.84106 34877 ft 487 kts 34°
2026-05-06 04:19 8.61681 107.87841 34886 ft 486 kts 34°
2026-05-06 04:19 8.67331 107.91594 34887 ft 485 kts 34°
2026-05-06 04:20 8.72982 107.95349 34876 ft 485 kts 34°
2026-05-06 04:20 8.78580 107.99071 34872 ft 484 kts 34°
2026-05-06 04:21 8.84208 108.02814 34888 ft 483 kts 34°
2026-05-06 04:21 8.89837 108.06557 34891 ft 483 kts 34°
2026-05-06 04:22 8.95418 108.10271 34892 ft 483 kts 34°
2026-05-06 04:23 9.03851 108.15885 34893 ft 483 kts 34°
2026-05-06 04:23 9.09478 108.19633 34893 ft 484 kts 34°
2026-05-06 04:24 9.15119 108.23392 34891 ft 485 kts 34°
2026-05-06 04:24 9.20750 108.27146 34888 ft 485 kts 34°
2026-05-06 04:25 9.26369 108.30894 34871 ft 486 kts 34°
2026-05-06 04:25 9.32027 108.34668 34875 ft 487 kts 34°
2026-05-06 04:26 9.37690 108.38448 34891 ft 487 kts 34°
2026-05-06 04:26 9.43320 108.42208 34877 ft 487 kts 34°
2026-05-06 04:27 9.48991 108.45993 34875 ft 488 kts 34°
2026-05-06 04:27 9.54664 108.49774 34892 ft 488 kts 34°
2026-05-06 04:28 9.60338 108.53558 34890 ft 487 kts 34°
2026-05-06 04:28 9.66009 108.57342 34895 ft 487 kts 34°
2026-05-06 04:29 9.71637 108.61097 34881 ft 487 kts 34°
2026-05-06 04:29 9.77303 108.64885 34891 ft 487 kts 34°
2026-05-06 04:30 9.82976 108.68678 34882 ft 487 kts 34°
2026-05-06 04:30 9.88614 108.72448 34881 ft 488 kts 34°
2026-05-06 04:31 9.94298 108.76251 34880 ft 488 kts 34°
2026-05-06 04:31 9.99974 108.80049 34892 ft 488 kts 33°
2026-05-06 04:32 10.05616 108.83822 34894 ft 488 kts 33°
2026-05-06 04:32 10.11309 108.87630 34892 ft 488 kts 33°
2026-05-06 04:33 10.16981 108.91427 34880 ft 488 kts 33°
2026-05-06 04:33 10.22657 108.95230 34882 ft 488 kts 33°
2026-05-06 04:34 10.28319 108.99024 34894 ft 487 kts 33°
2026-05-06 04:34 10.33930 109.02786 34896 ft 486 kts 33°
2026-05-06 04:35 10.39580 109.06576 34894 ft 486 kts 33°
2026-05-06 04:35 10.45228 109.10366 34895 ft 485 kts 33°
2026-05-06 04:36 10.50854 109.14143 34880 ft 484 kts 33°
2026-05-06 04:36 10.56449 109.17901 34881 ft 484 kts 33°
2026-05-06 04:37 10.62069 109.21678 34882 ft 483 kts 33°
2026-05-06 04:37 10.67686 109.25454 34898 ft 483 kts 33°
2026-05-06 04:38 10.73276 109.29212 34882 ft 485 kts 34°
2026-05-06 04:38 10.78910 109.33004 34905 ft 486 kts 34°
2026-05-06 04:39 10.84572 109.36817 34892 ft 488 kts 34°
2026-05-06 04:39 10.90249 109.40640 34893 ft 490 kts 33°
2026-05-06 04:40 10.95945 109.44478 34891 ft 491 kts 33°
2026-05-06 04:40 11.01644 109.48321 34894 ft 491 kts 33°
2026-05-06 04:41 11.07313 109.52146 34896 ft 491 kts 33°
2026-05-06 04:41 11.13015 109.55980 34894 ft 491 kts 33°
2026-05-06 04:42 11.18757 109.59759 34896 ft 490 kts 32°
2026-05-06 04:42 11.24485 109.63513 34896 ft 489 kts 32°
2026-05-06 04:43 11.30168 109.67249 34897 ft 488 kts 32°
2026-05-06 04:43 11.35877 109.71012 34892 ft 487 kts 32°
2026-05-06 04:44 11.41577 109.74772 34895 ft 487 kts 32°
2026-05-06 04:44 11.47256 109.78521 34894 ft 486 kts 32°
2026-05-06 04:45 11.52940 109.82273 34893 ft 486 kts 32°
2026-05-06 04:45 11.58588 109.86004 34892 ft 487 kts 32°
2026-05-06 04:46 11.64275 109.89763 34896 ft 487 kts 32°
2026-05-06 04:46 11.69978 109.93534 34896 ft 488 kts 32°
2026-05-06 04:47 11.75645 109.97283 34898 ft 489 kts 32°
2026-05-06 04:47 11.81368 110.01071 34896 ft 489 kts 32°
2026-05-06 04:48 11.87083 110.04854 34900 ft 490 kts 32°
2026-05-06 04:48 11.92772 110.08622 34897 ft 490 kts 32°
2026-05-06 04:49 11.98502 110.12420 34898 ft 491 kts 32°
2026-05-06 04:49 12.04237 110.16224 34892 ft 491 kts 32°
2026-05-06 04:50 12.09955 110.20021 34893 ft 492 kts 32°
2026-05-06 04:50 12.15711 110.23844 34896 ft 493 kts 32°
2026-05-06 04:51 12.21469 110.27669 34894 ft 493 kts 32°
2026-05-06 04:51 12.27223 110.31494 34893 ft 493 kts 32°
2026-05-06 04:52 12.32948 110.35302 34895 ft 494 kts 32°
2026-05-06 04:52 12.38701 110.39150 34894 ft 494 kts 33°
2026-05-06 04:53 12.44376 110.43108 34892 ft 493 kts 34°
2026-05-06 04:53 12.50044 110.47099 34894 ft 493 kts 33°
2026-05-06 04:54 12.55675 110.51044 34900 ft 493 kts 33°
2026-05-06 04:54 12.61345 110.55006 34898 ft 493 kts 33°
2026-05-06 04:55 12.67015 110.58970 34894 ft 492 kts 33°
2026-05-06 04:55 12.72671 110.62928 34894 ft 491 kts 33°
2026-05-06 04:56 12.78321 110.66881 34895 ft 491 kts 33°
2026-05-06 04:56 12.82056 110.69493 34895 ft 490 kts 33°
2026-05-06 04:57 12.89548 110.74738 34895 ft 490 kts 33°
2026-05-06 04:57 12.95186 110.78688 34896 ft 490 kts 33°
2026-05-06 04:58 13.00783 110.82613 34899 ft 489 kts 33°
2026-05-06 04:58 13.06410 110.86561 34896 ft 489 kts 33°
2026-05-06 04:59 13.12037 110.90510 34895 ft 490 kts 33°
2026-05-06 04:59 13.17627 110.94437 34897 ft 490 kts 33°
2026-05-06 05:00 13.23250 110.98388 34896 ft 490 kts 33°
2026-05-06 05:00 13.28885 111.02351 34897 ft 490 kts 33°
2026-05-06 05:01 13.34514 111.06311 34899 ft 490 kts 33°
2026-05-06 05:01 13.40107 111.10248 34900 ft 490 kts 33°
2026-05-06 05:02 13.45741 111.14216 34896 ft 491 kts 33°
2026-05-06 05:02 13.51377 111.18188 34895 ft 491 kts 33°
2026-05-06 05:03 13.56970 111.22132 34895 ft 491 kts 33°
2026-05-06 05:03 13.62609 111.26111 34895 ft 491 kts 33°
2026-05-06 05:04 13.68249 111.30093 34895 ft 491 kts 33°
2026-05-06 05:04 13.73885 111.34075 34894 ft 491 kts 33°
2026-05-06 05:05 13.78572 111.37388 34896 ft 492 kts 33°
2026-05-06 05:05 13.84222 111.41384 34895 ft 492 kts 33°
2026-05-06 05:06 13.89841 111.45361 34893 ft 492 kts 33°
2026-05-06 05:06 13.95476 111.49352 34898 ft 492 kts 33°
2026-05-06 05:07 14.01116 111.53337 34899 ft 492 kts 33°
2026-05-06 05:07 14.06737 111.57282 34899 ft 492 kts 32°
2026-05-06 05:08 14.12401 111.61258 34898 ft 491 kts 33°
2026-05-06 05:08 14.18055 111.65235 34894 ft 491 kts 33°
2026-05-06 05:09 14.23701 111.69211 34901 ft 491 kts 33°
2026-05-06 05:09 14.29315 111.73166 34897 ft 491 kts 33°
2026-05-06 05:10 14.34959 111.77146 34897 ft 491 kts 33°
2026-05-06 05:10 14.40609 111.81132 34898 ft 491 kts 33°
2026-05-06 05:11 14.46259 111.85120 34896 ft 491 kts 33°
2026-05-06 05:11 14.51865 111.89080 34900 ft 492 kts 33°
2026-05-06 05:12 14.57521 111.93079 34898 ft 492 kts 33°
2026-05-06 05:12 14.63165 111.97102 34898 ft 492 kts 33°
2026-05-06 05:13 14.68794 112.01124 34900 ft 492 kts 33°
2026-05-06 05:13 14.74439 112.05125 34899 ft 492 kts 32°
2026-05-06 05:14 14.80075 112.09072 34901 ft 492 kts 32°
2026-05-06 05:14 14.85751 112.13048 34898 ft 492 kts 32°
2026-05-06 05:15 14.91418 112.17029 34902 ft 492 kts 32°
2026-05-06 05:15 14.97091 112.21021 34898 ft 493 kts 32°
2026-05-06 05:16 15.02757 112.25012 34899 ft 493 kts 32°
2026-05-06 05:16 15.08393 112.28983 34899 ft 493 kts 32°
2026-05-06 05:17 15.14068 112.32984 34901 ft 493 kts 32°
2026-05-06 05:17 15.19744 112.36989 34903 ft 493 kts 32°
2026-05-06 05:18 15.25387 112.40973 34898 ft 493 kts 32°
2026-05-06 05:18 15.31055 112.44977 34898 ft 493 kts 32°
2026-05-06 05:19 15.36730 112.48988 34898 ft 493 kts 32°
2026-05-06 05:19 15.42397 112.52997 34900 ft 493 kts 32°
2026-05-06 05:20 15.48032 112.56986 34899 ft 493 kts 32°
2026-05-06 05:20 15.53712 112.61009 34901 ft 493 kts 32°
2026-05-06 05:21 15.59385 112.65031 34898 ft 493 kts 32°
2026-05-06 05:21 15.65021 112.69029 34895 ft 493 kts 32°
2026-05-06 05:22 15.70702 112.73061 34894 ft 494 kts 32°
2026-05-06 05:22 15.76382 112.77095 34900 ft 494 kts 32°
2026-05-06 05:23 15.82050 112.81124 34898 ft 494 kts 32°
2026-05-06 05:23 15.90516 112.87146 34897 ft 494 kts 32°
2026-05-06 05:24 15.96186 112.91184 34896 ft 494 kts 32°
2026-05-06 05:24 16.01851 112.95220 34895 ft 493 kts 32°
2026-05-06 05:25 16.07518 112.99261 34896 ft 493 kts 32°
2026-05-06 05:25 16.13179 113.03299 34898 ft 493 kts 32°
2026-05-06 05:26 16.18800 113.07313 34897 ft 493 kts 32°
2026-05-06 05:26 16.24459 113.11357 34898 ft 493 kts 32°
2026-05-06 05:27 16.30124 113.15407 34898 ft 493 kts 32°
2026-05-06 05:27 16.35786 113.19459 34896 ft 493 kts 32°
2026-05-06 05:28 16.41417 113.23491 34899 ft 493 kts 32°
2026-05-06 05:28 16.47073 113.27543 34899 ft 493 kts 32°
2026-05-06 05:29 16.52738 113.31605 34896 ft 493 kts 32°
2026-05-06 05:29 16.58399 113.35668 34896 ft 493 kts 32°
2026-05-06 05:30 16.64017 113.39702 34897 ft 494 kts 32°
2026-05-06 05:30 16.69680 113.43772 34898 ft 494 kts 32°
2026-05-06 05:31 16.75335 113.47839 34899 ft 494 kts 32°
2026-05-06 05:31 16.80966 113.51892 34898 ft 494 kts 32°
2026-05-06 05:32 16.86641 113.55980 34896 ft 494 kts 32°
2026-05-06 05:32 16.92303 113.60062 34898 ft 494 kts 32°
2026-05-06 05:33 16.97927 113.64119 34896 ft 494 kts 32°
2026-05-06 05:33 17.03587 113.68205 34897 ft 494 kts 32°
2026-05-06 05:34 17.09272 113.72264 34901 ft 494 kts 32°
2026-05-06 05:34 17.14931 113.76278 34901 ft 494 kts 32°
2026-05-06 05:35 17.20612 113.80316 34897 ft 494 kts 32°
2026-05-06 05:35 17.26295 113.84366 34899 ft 494 kts 32°
2026-05-06 05:36 17.31945 113.88398 34898 ft 494 kts 32°
2026-05-06 05:36 17.34789 113.90428 34899 ft 494 kts 32°